User: anonymous   Login
Location: Caltech
(34.1382°N, 118.1253°W)
Time: 04:45:08
(UTC-08:00)
Language:

PANSAT - Orbit

View from above orbital plane
View from above orbital plane
View from above satellite
View from above satellite

Ground track
Ground track

The orbit data is extracted from the following two-line orbital elements,

1 25520U 98064B   15062.33938657  .00005076  00000-0  18638-3 0  9996
2 25520 028.4576 275.1839 0004422 080.7243 272.3709 15.25508462906215
Epoch (UTC): 03 March 2015 08:08:43
Eccentricity: 0.0004422
inclination: 28.4576°
perigee height: 486 km
apogee height: 492 km
right ascension of ascending node: 275.1839°
argument of perigee: 80.7243°
revolutions per day: 15.25508462
mean anomaly at epoch: 272.3709°
orbit number at epoch: 90621

The dashed part of the orbit path shows where the satellite is in the earth's shadow,  

DLR